Theta_e
331 329 329 331 332 334 335 332 330 332 333 336 337 337 338 338 338 338 339 339 339 339 338 339 339 339 339 338 338 339 339 339 339 339 339 338 339 339 339 339 339 338 338 338 338 338 338 339 339 339 338 338 335 334 332 331 329 326 326 326 327 329 331 332 333 334 334 330 323 319 318 315 315 322 333 339 341 340 337 334 335 336 336 338 339
331 329 328 328 330 331 331 328 327 328 330 334 335 336 337 337 338 338 338 338 339 338 338 339 339 339 339 338 338 339 339 339 339 339 339 338 337 337 338 338 339 339 339 339 339 339 338 339 339 339 338 337 336 336 334 332 331 329 327 325 326 328 330 330 331 332 334 333 329 328 326 321 321 330 339 343 344 343 343 338 335 336 336 337 338
330 329 327 326 327 327 326 324 324 326 329 333 334 334 336 336 337 337 338 338 338 338 338 338 338 338 338 339 338 338 339 340 339 338 337 335 335 335 336 337 337 338 338 339 339 339 339 339 339 339 338 337 337 336 335 335 333 331 330 328 326 327 329 330 330 330 331 331 332 334 333 330 330 336 341 342 341 342 345 340 337 337 336 336 337
329 329 327 326 325 325 323 321 321 324 327 330 332 333 335 334 334 336 337 337 337 336 337 337 337 338 338 338 337 338 338 338 337 336 335 334 332 332 333 334 335 337 338 338 339 338 339 339 339 339 338 337 337 337 336 336 334 333 332 331 328 326 326 327 328 329 330 330 331 335 336 335 335 338 339 337 338 340 344 342 340 338 336 335 335
329 328 327 326 324 323 320 320 321 325 327 329 331 332 334 331 331 334 334 335 335 335 336 336 337 337 336 336 336 336 336 334 334 334 335 333 331 331 331 332 333 336 337 337 338 338 338 338 338 339 339 338 337 337 336 335 335 334 334 332 330 327 325 324 325 325 327 328 330 337 339 338 337 338 336 335 337 338 341 341 341 339 335 334 334
329 328 327 324 321 321 320 321 323 326 329 330 330 331 333 330 329 332 332 333 334 334 334 335 335 335 335 334 334 334 333 332 333 334 333 332 331 331 331 331 331 333 334 335 336 337 338 337 338 338 338 338 337 337 336 336 336 335 335 333 332 329 327 325 324 323 323 324 327 335 339 339 339 338 336 335 337 337 337 338 339 336 331 330 332
328 327 327 324 319 319 320 322 325 327 329 329 329 329 331 330 329 331 331 332 332 332 332 333 333 332 332 331 331 331 331 331 331 331 331 330 329 329 329 330 330 332 333 334 334 334 336 336 336 336 336 336 335 335 335 334 334 334 334 333 332 331 329 327 326 325 323 322 324 331 337 339 339 338 337 335 337 338 336 335 335 332 328 323 323
327 326 327 324 319 319 320 321 323 325 327 327 328 329 329 329 328 330 329 329 330 330 330 330 330 330 330 329 329 329 329 329 329 328 328 327 327 327 327 328 328 329 330 331 331 331 332 332 333 333 333 332 332 331 331 330 330 331 331 330 330 330 329 328 327 327 325 324 324 328 334 337 338 338 338 337 338 339 338 334 333 334 332 326 320
325 326 326 323 318 318 320 319 319 320 322 323 325 325 325 325 325 327 328 328 328 328 328 328 328 328 327 327 327 326 326 326 325 324 324 323 323 323 323 323 324 325 326 327 327 327 328 328 328 329 328 328 328 327 327 327 327 327 327 327 328 328 329 328 328 327 327 325 324 326 331 334 335 336 338 338 339 339 339 335 335 336 335 331 327
324 324 324 321 317 318 318 318 317 316 316 315 317 317 318 319 321 323 324 325 325 325 326 325 325 324 323 323 322 321 321 320 319 318 318 317 317 317 316 315 316 317 319 321 322 323 323 323 322 322 322 322 322 322 322 322 321 321 321 322 323 324 325 327 327 327 327 327 326 325 327 331 332 333 335 338 339 339 338 337 337 337 334 332 331
322 322 321 319 317 317 317 315 314 312 311 310 311 311 312 314 316 317 319 320 321 321 321 320 319 318 317 316 314 313 312 312 311 310 310 309 309 308 308 308 307 307 309 311 313 315 316 314 313 312 312 311 312 312 312 313 313 314 315 316 317 319 320 323 325 327 328 327 327 326 327 331 332 331 331 334 338 338 337 337 337 336 334 332 332
321 321 319 317 316 317 316 314 311 309 308 308 308 307 308 308 309 310 311 312 312 312 312 311 310 308 308 306 305 304 304 303 303 303 303 302 302 301 301 302 302 302 301 302 303 306 307 305 303 302 302 302 302 302 302 303 304 305 306 308 310 313 316 318 321 324 327 328 328 326 327 331 333 332 330 332 336 336 336 337 336 336 333 331 333
321 321 319 316 315 317 315 312 309 307 306 306 305 304 304 303 304 304 304 304 304 304 303 303 302 302 301 300 300 300 299 299 299 299 298 298 298 298 298 299 300 300 300 299 299 300 302 300 298 298 298 298 298 298 298 298 298 299 299 300 302 304 308 312 316 319 323 325 328 328 328 331 332 332 332 333 336 335 336 336 333 333 331 329 329
319 319 319 316 314 316 314 310 306 305 304 303 302 301 301 301 301 301 300 300 300 300 299 299 299 299 299 298 299 298 298 298 298 297 297 297 297 298 298 299 300 301 301 301 300 300 301 300 297 296 296 296 297 297 297 297 297 297 297 298 298 299 300 303 308 312 317 320 324 326 327 329 330 332 333 334 336 336 337 334 331 331 330 329 327
318 317 316 315 314 314 312 307 304 303 302 301 300 301 301 300 300 300 299 299 299 299 299 299 298 298 298 298 298 298 298 297 297 297 297 297 297 298 298 298 298 298 299 299 299 298 299 298 296 296 296 296 296 296 296 296 296 297 297 297 297 297 297 298 299 302 307 312 316 319 322 326 328 330 331 333 334 335 337 335 333 332 330 328 326
316 315 314 314 313 313 309 305 303 301 300 300 300 301 301 300 300 299 299 299 299 299 299 299 298 298 298 298 298 298 298 298 298 298 298 298 297 297 297 297 297 297 297 297 297 297 297 296 296 296 296 296 296 296 296 297 297 297 297 298 299 300 301 301 300 300 301 305 311 317 323 326 328 329 330 331 333 333 335 335 336 335 332 330 329
314 313 313 312 312 312 307 304 302 300 300 300 300 300 300 300 299 299 299 299 299 299 299 299 298 298 298 298 298 298 298 298 298 298 298 298 297 297 297 297 297 297 297 297 297 297 297 297 297 297 297 297 297 297 297 297 298 298 298 299 302 304 305 305 306 306 307 310 314 319 323 324 323 325 328 331 334 334 334 335 337 336 334 333 332
312 311 311 311 311 309 305 302 301 299 299 299 299 299 299 299 299 298 298 298 298 298 298 298 298 298 298 298 298 298 298 298 298 297 297 297 297 297 297 297 297 297 297 297 297 297 297 297 297 297 297 297 297 297 297 297 297 297 298 300 302 303 304 304 305 306 309 312 314 317 319 320 319 318 322 328 332 333 334 335 336 336 335 334 334
309 309 309 309 308 307 303 301 300 299 299 299 299 299 299 299 298 298 298 298 298 298 298 298 298 298 298 298 298 297 297 297 297 297 297 297 296 297 297 296 296 296 296 296 296 296 296 295 295 296 296 296 296 296 296 296 296 296 296 298 300 300 300 299 299 300 302 304 306 308 311 313 314 312 315 322 326 329 330 331 332 333 334 333 333
307 307 307 307 305 304 302 300 299 298 298 299 299 298 298 298 298 297 297 297 297 297 298 297 297 297 297 297 297 296 296 296 296 296 296 296 296 296 296 295 295 295 295 295 295 296 297 297 296 295 295 295 295 295 295 295 295 296 295 296 298 297 297 296 296 296 297 299 300 302 303 305 306 307 311 316 320 322 325 326 327 328 328 329 330
306 305 305 304 303 302 300 299 298 298 298 298 298 298 298 297 297 297 297 297 297 297 297 296 297 297 297 297 297 296 295 295 295 295 295 296 295 295 295 294 294 294 294 294 294 296 297 298 296 294 294 294 294 295 295 295 295 295 295 295 296 296 296 296 296 296 296 297 298 299 301 301 303 306 310 313 315 316 318 320 321 323 323 324 326
304 304 304 303 302 301 300 299 298 298 298 298 298 298 297 297 296 296 296 296 296 296 296 296 297 297 297 297 297 295 295 295 295 295 295 295 295 294 294 294 294 294 294 294 294 294 294 295 294 293 293 294 294 294 294 295 295 295 295 295 295 295 296 296 296 296 296 296 297 297 298 299 301 305 309 311 312 313 313 314 316 320 320 319 321
303 303 302 302 302 301 301 299 298 298 298 299 299 298 297 297 296 296 295 295 295 296 296 296 297 297 296 296 296 295 295 294 295 295 294 294 294 294 294 294 294 294 294 294 294 294 294 294 294 293 294 293 293 294 294 294 294 294 294 295 295 295 295 295 295 295 295 296 296 296 297 297 298 301 306 309 311 312 313 313 314 316 317 317 318
304 303 302 302 301 301 301 300 299 298 299 299 299 297 296 296 296 295 295 295 295 295 295 296 297 297 296 296 296 296 295 295 295 294 294 294 294 294 294 294 294 294 294 294 294 294 294 294 294 294 294 294 294 293 293 293 293 294 294 294 294 294 295 294 294 295 295 295 295 295 296 296 297 301 305 309 310 311 312 312 313 314 315 315 316
304 303 302 302 302 301 301 300 299 299 299 299 299 297 296 296 295 295 295 295 295 295 295 296 296 296 296 296 296 296 295 295 295 295 294 294 294 294 294 294 294 294 294 294 294 294 294 294 293 294 294 293 293 293 293 293 293 293 293 293 293 294 294 294 294 294 294 294 294 294 295 295 297 301 305 307 309 310 311 312 312 313 314 315 316
303 302 302 302 301 301 301 300 299 299 299 299 299 297 296 296 295 295 294 295 295 295 295 295 296 296 296 296 296 297 296 295 295 295 294 294 294 294 294 294 295 295 295 294 294 294 294 293 293 293 293 293 293 293 293 293 293 292 292 292 293 293 293 293 293 293 293 293 293 293 294 294 295 298 302 305 308 309 311 312 312 313 314 315 316
303 303 303 302 301 301 301 300 300 300 299 299 298 296 296 296 295 295 295 295 295 295 295 295 296 296 296 296 297 297 296 296 295 295 294 294 294 294 294 295 295 295 295 295 294 294 293 293 293 293 293 293 293 293 293 292 292 292 292 292 292 292 292 292 292 292 292 292 293 293 293 294 294 295 298 303 306 308 310 311 312 313 314 315 316
303 303 303 302 301 301 301 300 300 300 299 298 296 296 296 296 296 296 297 296 295 296 296 296 296 296 296 296 297 297 296 296 295 295 295 294 294 294 294 295 295 295 294 294 294 293 293 292 292 292 292 292 292 292 292 292 291 291 291 291 292 292 292 292 292 292 292 292 292 292 293 293 294 294 297 301 303 306 309 310 311 313 314 314 315
304 303 303 302 302 302 301 301 300 300 300 298 296 296 297 297 298 297 297 297 296 296 297 296 296 296 296 296 296 296 296 295 295 295 295 294 294 294 294 294 294 294 294 294 293 293 292 292 292 292 292 292 291 291 291 291 291 291 291 291 291 291 291 291 291 292 292 292 292 292 293 293 294 294 296 299 302 304 307 309 310 311 312 313 313
304 304 303 303 303 302 301 301 300 300 300 298 296 297 298 298 298 297 297 297 296 296 297 296 295 295 295 295 295 295 295 295 294 294 294 294 294 293 294 294 294 293 293 293 293 292 292 292 292 291 291 291 291 290 290 290 290 290 290 290 291 291 291 291 291 292 292 292 292 292 293 293 293 294 295 297 300 303 305 307 308 309 310 311 312
304 304 304 303 303 302 302 301 301 300 300 299 297 298 298 298 298 298 297 297 296 296 297 296 295 294 294 294 294 295 294 294 294 294 294 294 294 294 294 294 293 293 293 293 293 293 292 292 291 291 291 290 290 289 289 289 289 289 290 290 290 291 291 291 291 291 292 292 292 292 293 293 293 294 295 296 298 301 303 305 306 307 308 309 310
304 304 304 303 303 302 302 301 301 300 300 299 299 299 299 298 299 298 297 297 297 297 297 296 295 294 294 294 294 294 294 293 293 294 294 294 294 294 294 293 293 293 292 293 293 292 292 291 291 291 290 290 289 289 289 289 289 289 289 290 290 290 290 291 291 291 291 292 292 292 293 293 294 294 295 296 297 298 299 301 303 305 306 307 309
305 304 304 303 303 302 302 301 301 301 300 299 299 299 299 298 299 299 298 297 297 297 296 295 296 295 293 293 293 293 293 293 293 294 294 294 295 295 295 294 293 293 292 292 292 292 292 291 291 291 290 290 290 289 289 289 289 289 289 290 290 290 290 290 290 291 291 292 292 292 292 293 294 295 296 297 297 297 297 298 301 303 305 306 307
305 304 304 303 303 302 302 301 301 301 300 299 299 299 299 298 298 298 298 297 297 297 296 295 296 295 293 293 293 293 293 293 293 294 294 294 295 295 295 293 293 292 292 292 292 291 291 291 291 291 290 290 289 289 288 289 289 289 289 289 290 290 290 290 290 290 291 291 292 292 293 293 294 295 297 297 298 297 297 297 299 301 303 304 305
305 304 304 304 303 302 301 301 301 300 300 299 299 299 298 298 298 298 297 296 296 296 295 295 295 295 294 292 293 293 293 293 293 294 294 294 295 295 294 293 292 291 291 291 291 291 291 291 291 290 290 290 289 288 288 288 289 289 289 289 290 290 290 290 290 290 291 291 291 292 293 294 294 296 297 298 298 298 297 298 298 300 301 303 303
306 305 304 303 303 302 301 301 300 300 300 299 299 298 298 298 298 297 297 296 295 295 295 295 295 294 293 292 292 293 293 293 293 293 293 294 294 294 293 292 291 291 290 290 290 290 290 290 290 290 290 289 289 288 288 288 288 289 289 289 290 290 290 290 290 290 290 291 292 293 294 295 295 296 297 298 298 299 298 297 298 299 299 301 301
306 305 304 303 302 301 301 301 300 300 300 299 299 298 298 298 298 297 297 296 295 295 294 294 295 294 293 292 292 292 292 292 292 292 293 293 293 293 292 291 290 290 290 290 290 290 291 290 290 289 289 288 288 288 288 288 288 288 289 289 290 289 289 289 290 290 290 292 293 294 295 295 296 297 298 298 299 299 297 295 297 299 299 300 301
307 305 304 303 302 301 301 300 300 300 299 299 298 298 298 298 298 297 297 296 295 295 294 294 294 294 293 292 292 292 291 291 292 292 292 292 292 292 291 291 290 290 290 290 290 290 290 290 290 289 288 288 288 288 288 288 288 288 289 289 289 289 289 290 290 290 291 292 293 294 295 295 296 297 297 296 296 295 294 294 297 298 298 299 300
307 306 304 303 302 301 300 300 299 299 299 299 298 298 298 298 297 297 296 296 295 295 295 295 294 294 293 292 292 291 291 291 291 291 291 291 291 291 291 291 290 290 290 290 290 290 290 290 289 289 288 288 288 288 288 288 288 288 289 289 288 289 289 290 290 290 291 292 293 293 294 294 295 295 294 293 293 294 294 294 295 296 295 295 295
307 305 304 303 301 300 299 299 299 299 299 298 298 298 297 297 297 296 296 295 295 295 295 295 294 294 293 293 292 291 291 291 291 291 291 291 291 291 291 291 290 290 290 290 290 290 290 290 289 290 289 288 288 288 288 287 288 288 288 288 288 289 290 290 290 291 291 292 292 292 291 292 292 293 292 292 294 295 295 294 294 293 293 293 293
306 305 303 302 301 300 299 298 299 298 298 298 298 297 297 297 296 296 296 295 295 295 295 295 294 294 293 293 292 291 291 291 291 291 290 291 291 291 291 291 290 290 289 289 289 290 290 289 289 289 289 289 288 288 288 287 288 289 288 288 289 289 290 290 290 291 291 291 291 290 290 290 291 291 292 292 292 293 293 293 292 291 291 292 293
305 304 303 302 301 300 299 299 298 298 298 298 298 297 297 297 296 296 295 295 295 295 295 295 294 294 293 292 292 291 291 290 290 290 290 290 291 291 291 290 290 289 289 289 289 289 289 289 289 288 288 288 288 288 288 287 288 288 287 288 289 289 289 290 291 291 290 290 290 290 290 290 290 290 290 290 290 291 291 291 291 291 291 292 293
304 303 302 301 300 299 299 299 298 298 298 298 298 297 297 296 296 296 295 295 295 295 295 294 294 293 293 292 291 291 290 290 290 290 290 290 290 291 291 290 290 289 289 289 289 289 289 289 289 288 287 287 288 288 288 287 287 287 288 289 290 289 290 290 290 290 289 290 290 290 290 289 289 290 290 290 290 290 290 290 290 291 291 292 292
303 302 301 300 300 299 299 299 298 298 297 297 297 297 297 296 296 296 295 295 295 294 294 294 294 293 292 292 291 291 290 290 290 290 290 290 290 290 290 290 289 289 289 289 289 289 289 288 288 287 286 287 287 287 287 287 287 287 288 290 289 290 291 289 288 289 289 289 289 289 289 289 289 289 289 289 289 289 289 289 290 290 290 290 290
302 301 301 300 300 299 299 299 298 298 297 297 297 296 296 295 295 295 294 294 294 294 293 293 293 292 292 292 291 291 290 289 289 289 289 289 290 290 290 289 289 289 288 289 289 289 289 288 287 287 286 286 287 287 288 287 287 287 287 289 289 290 291 289 288 289 289 288 288 288 289 289 289 289 288 288 288 289 289 289 288 288 288 288 288
301 301 301 301 300 300 299 299 298 298 297 297 297 296 296 295 295 294 293 293 293 293 293 293 292 292 292 291 291 290 289 289 289 289 289 289 289 289 289 289 288 288 288 288 288 288 288 288 287 286 286 286 287 287 287 287 286 286 286 287 288 289 289 288 288 289 288 287 287 288 288 288 288 288 288 288 288 288 287 287 287 287 287 287 287
301 301 301 300 300 300 299 299 298 297 297 297 296 296 296 295 295 294 294 293 292 292 292 292 292 292 292 291 291 290 289 288 288 288 288 288 289 289 289 288 288 288 288 288 288 288 288 288 287 286 285 286 287 287 287 287 286 286 286 286 286 287 287 287 288 288 286 286 287 287 287 287 287 287 287 287 287 287 286 286 286 286 286 286 286
300 300 300 300 300 299 299 298 298 297 297 296 296 296 296 295 295 294 294 293 293 293 292 292 292 291 291 291 291 290 288 288 288 288 288 288 288 288 288 288 288 288 288 288 288 288 288 288 287 286 285 286 286 286 286 286 286 286 286 286 286 286 286 286 286 286 285 285 285 286 286 286 286 286 286 286 286 286 286 286 286 286 286 286 286
300 300 300 300 299 299 298 298 297 297 297 296 296 296 296 295 295 294 293 293 293 292 292 292 291 291 291 291 290 289 288 288 288 287 287 288 288 288 288 287 287 287 287 288 288 288 288 287 286 285 285 285 285 285 285 285 285 286 286 285 285 285 285 285 285 285 285 285 285 285 285 285 285 285 285 285 285 285 285 285 285 285 285 285 285
300 300 299 299 299 298 298 297 297 297 296 296 296 296 295 295 294 294 293 293 292 292 292 291 291 291 291 290 290 289 288 288 288 287 287 287 287 287 287 287 287 287 287 287 288 288 288 287 286 285 284 284 284 284 284 284 285 285 285 285 285 285 285 284 284 284 284 284 285 284 284 284 284 284 285 285 285 285 285 285 285 285 285 285 285
299 299 299 298 298 297 297 297 297 296 296 296 296 295 295 294 294 294 293 293 292 292 291 291 291 291 290 290 289 289 288 288 288 287 287 287 287 287 287 287 287 287 287 287 287 287 287 286 285 284 284 284 284 284 284 284 284 284 285 285 285 284 284 284 284 284 284 284 284 284 284 284 284 284 284 284 284 284 284 284 284 284 284 284 285
Wind_Speed
9 10 11 10 10 10 9 9 9 9 9 9 10 10 10 10 9 8 8 8 7 6 6 7 8 8 8 9 9 9 9 9 9 9 9 8 8 7 6 5 4 4 3 3 3 4 4 4 4 3 3 3 5 6 7 8 9 10 10 10 10 10 10 10 10 10 11 11 11 9 8 6 4 3 4 5 6 7 7 7 6 6 6 5 5
11 10 9 10 10 9 9 8 8 7 8 8 9 9 10 10 11 10 10 10 10 9 10 10 10 9 9 10 9 10 11 11 11 10 10 9 8 8 7 6 5 4 4 3 3 3 3 4 4 3 3 2 4 5 6 7 8 9 10 10 10 10 10 10 10 10 11 12 11 11 11 8 6 5 4 5 6 7 7 6 5 6 6 5 5
12 9 8 9 9 9 8 8 8 8 8 8 8 9 9 10 10 10 11 11 10 10 10 10 9 9 9 9 9 10 11 11 11 10 8 7 7 7 6 6 5 5 5 5 4 3 3 3 3 3 3 2 2 3 5 6 8 9 9 10 11 11 11 11 11 11 11 11 10 9 11 10 7 6 6 7 9 8 6 3 4 5 6 5 5
11 9 8 9 9 9 9 8 9 9 8 8 8 9 9 9 9 9 9 9 9 9 9 9 8 8 8 8 8 9 9 9 8 7 7 5 5 5 5 5 5 5 6 6 5 4 4 4 3 4 3 2 2 3 3 5 6 8 9 10 10 10 11 11 12 12 11 11 10 8 10 11 8 6 7 9 9 8 5 3 4 5 6 7 6
11 10 9 9 10 10 10 9 10 10 9 9 9 9 9 8 8 9 8 8 8 8 8 8 8 7 7 7 7 7 7 6 6 6 5 4 4 4 4 4 4 5 5 5 5 5 5 4 4 4 4 3 2 3 3 4 5 6 8 9 9 9 9 10 11 12 12 12 10 7 9 13 11 7 8 10 9 8 6 5 5 6 7 7 7
13 12 10 10 11 11 10 10 10 11 10 10 10 9 9 8 8 9 9 8 8 8 8 8 7 6 5 4 4 5 5 5 6 6 4 3 4 4 4 4 4 4 4 4 3 3 5 5 4 4 3 3 3 3 3 4 5 6 7 8 9 9 9 10 10 11 12 12 10 7 7 12 13 9 9 10 9 8 6 6 5 6 7 7 7
15 14 12 10 10 10 10 10 11 11 10 10 10 9 9 9 9 10 10 9 9 9 9 8 7 6 5 5 5 6 6 6 7 5 5 4 4 4 4 5 5 5 5 4 1 1 3 3 2 3 3 3 4 4 4 4 5 6 6 7 8 9 11 11 12 11 11 11 9 6 6 9 10 8 9 11 10 8 7 8 7 7 8 7 7
16 14 12 11 9 10 10 10 10 10 10 10 10 10 9 9 9 10 10 10 10 10 9 9 8 7 8 9 8 8 8 8 7 6 6 5 5 4 4 4 4 5 5 4 2 1 1 1 2 3 4 5 5 6 6 6 6 7 7 7 8 10 11 12 13 12 11 10 8 5 5 7 8 7 7 8 9 8 7 7 8 8 9 9 8
16 14 13 12 10 10 9 9 9 9 9 9 9 9 8 8 8 9 9 9 9 10 10 9 9 9 10 10 9 9 9 8 7 6 5 5 4 4 3 3 3 3 3 3 4 4 4 4 3 4 6 6 7 7 8 8 8 8 9 9 9 10 11 12 12 12 12 10 8 6 5 6 8 7 6 6 7 7 7 7 8 9 10 11 10
17 15 14 13 11 11 10 10 10 10 10 10 10 9 9 8 8 8 8 7 7 8 9 8 8 8 8 8 8 8 7 6 6 5 5 5 4 4 4 3 3 3 2 3 4 5 5 5 5 6 7 8 8 9 9 9 10 10 10 10 10 10 11 11 12 12 12 11 10 8 5 6 7 7 6 6 7 8 9 9 9 10 11 11 12
18 16 15 14 14 13 12 12 12 12 12 12 11 11 10 9 9 9 8 8 8 8 7 7 6 6 6 6 6 6 6 6 5 5 5 5 5 5 5 5 4 4 3 3 3 4 5 5 6 7 8 8 9 9 10 10 11 11 11 11 11 11 11 11 11 11 10 10 11 9 6 4 7 8 7 7 8 10 10 11 11 11 12 12 12
19 17 16 15 15 14 14 14 14 14 13 13 12 12 11 10 10 9 9 9 8 8 7 7 6 5 5 5 5 5 5 5 5 5 5 5 5 5 6 6 6 6 5 5 4 5 5 5 5 6 7 7 8 8 9 10 10 11 11 12 12 12 12 12 12 11 10 9 9 9 7 5 6 8 9 8 9 11 11 11 13 13 14 12 11
20 18 17 16 16 16 16 15 15 15 14 14 13 12 11 10 9 9 9 8 8 7 7 6 6 5 5 5 5 6 6 6 6 6 6 7 7 7 8 8 8 8 8 7 7 7 7 7 7 7 7 8 8 8 8 9 9 10 10 11 12 12 12 12 12 11 10 9 8 8 7 7 7 7 9 9 9 10 11 12 14 14 13 12 12
22 20 18 17 17 17 18 18 17 16 15 14 13 11 10 9 8 8 8 7 7 7 7 6 6 6 6 6 6 7 7 8 8 8 8 9 9 10 10 10 10 10 10 10 10 10 10 10 10 10 10 10 10 10 10 10 10 10 10 10 11 11 12 12 12 12 12 11 9 8 7 8 8 8 8 9 9 9 11 14 14 14 14 14 14
23 21 19 19 18 19 19 19 18 17 15 14 12 10 9 8 7 7 7 7 7 7 7 7 7 6 6 7 7 7 8 8 8 9 9 9 10 10 10 10 10 10 10 10 10 10 10 10 11 11 12 12 12 13 13 13 12 11 11 11 11 11 11 11 11 11 12 12 11 9 8 7 8 9 9 10 11 10 11 13 14 15 15 15 14
22 20 20 19 18 19 20 19 17 17 16 14 12 10 9 8 8 8 8 8 8 8 8 8 8 7 7 7 7 8 8 8 9 9 9 9 9 9 9 9 9 9 9 9 9 10 10 10 11 11 11 12 12 12 13 13 13 13 13 13 13 12 11 10 10 9 9 9 9 8 8 7 8 9 11 11 12 12 12 13 13 13 14 14 14
21 20 19 19 19 19 19 19 18 17 16 14 12 11 10 9 9 9 9 9 9 9 9 9 9 8 8 8 8 8 8 9 9 9 9 9 9 9 8 8 8 9 9 9 9 9 9 10 10 11 11 11 11 11 11 12 13 13 14 14 14 13 12 11 10 9 9 8 7 7 7 8 9 9 10 11 10 11 11 11 11 12 13 14 14
21 20 19 19 21 21 21 20 18 18 17 15 13 12 12 11 11 10 10 11 11 11 10 10 10 10 10 10 10 10 10 10 9 9 9 9 9 8 8 8 8 8 9 9 9 9 9 10 10 10 10 10 10 10 10 11 11 12 12 13 13 12 11 11 11 10 9 8 8 8 8 9 10 10 11 12 11 11 10 10 11 12 13 14 15
22 21 19 20 21 22 22 21 19 19 17 16 15 14 14 13 13 12 12 12 12 12 12 13 13 13 13 13 12 12 12 11 10 10 9 9 9 9 9 9 9 9 9 10 10 10 10 11 11 10 11 11 11 11 11 11 11 12 12 11 11 12 12 12 12 11 10 9 9 9 9 11 11 11 12 13 13 13 13 13 13 13 14 14 15
22 21 21 21 22 24 23 22 21 20 19 17 16 15 15 15 15 15 15 15 15 15 15 16 15 15 14 14 14 13 12 11 11 10 10 10 10 10 10 10 10 10 11 11 11 11 11 12 12 12 12 12 12 12 12 12 12 12 12 11 11 12 12 13 12 11 11 10 9 9 9 10 11 12 13 14 14 15 15 16 16 17 18 17 17
23 23 23 22 23 24 24 24 22 21 20 19 18 17 16 16 17 17 17 17 17 17 16 16 16 15 13 12 12 12 11 10 10 10 10 10 10 10 10 11 11 12 12 12 12 12 11 12 12 12 13 13 13 12 13 13 13 13 13 12 12 13 13 14 13 12 11 11 11 10 11 11 11 13 14 15 15 15 15 16 17 18 20 20 19
26 25 24 24 25 25 25 25 24 23 21 20 19 18 17 17 17 18 18 17 17 16 15 15 14 13 11 9 10 10 10 9 9 9 10 10 10 10 10 11 11 12 12 12 12 12 12 12 12 13 13 14 14 14 14 14 14 15 15 15 15 16 16 16 16 14 13 12 12 11 12 12 13 15 16 16 16 16 16 17 17 17 19 20 19
29 29 28 27 27 26 26 26 25 25 23 22 20 18 18 17 18 18 17 17 16 16 15 15 13 12 11 9 9 10 9 8 8 9 9 9 8 9 10 10 11 11 11 11 12 12 12 12 12 13 13 14 15 15 15 15 16 16 16 17 17 17 17 18 18 17 16 14 13 13 13 13 14 15 17 18 18 17 17 17 17 18 18 19 20
34 33 32 30 29 28 27 27 26 26 25 23 21 19 19 18 18 18 17 16 16 15 15 15 13 12 11 10 10 10 10 9 8 8 8 7 8 8 9 10 10 11 11 11 11 12 12 12 12 13 13 14 15 15 16 16 16 16 16 17 17 17 17 18 19 18 18 17 16 15 14 14 15 16 18 19 19 19 18 18 18 18 18 19 19
34 33 32 32 32 31 29 28 27 27 26 24 22 21 20 19 19 18 17 16 16 16 15 15 14 12 12 11 11 11 10 9 8 8 8 7 7 7 8 9 9 10 11 11 12 13 13 13 13 13 14 14 14 15 16 16 16 16 16 16 16 16 16 17 18 19 18 18 18 18 17 16 16 17 18 19 19 19 19 19 19 19 19 19 19
30 33 35 35 34 33 31 30 29 29 27 25 23 22 22 21 20 20 19 18 17 17 16 16 14 13 13 12 12 11 10 9 8 7 7 6 6 7 7 8 8 9 11 12 12 14 14 15 15 14 14 14 14 14 14 15 15 16 16 16 16 16 16 17 17 18 19 19 19 19 19 19 19 19 19 19 19 19 19 19 20 20 20 20 19
32 36 38 37 36 35 33 32 31 31 29 26 24 23 23 21 21 21 21 20 19 18 17 16 15 14 14 13 12 11 10 9 8 7 7 6 6 6 6 7 7 8 10 11 13 14 15 15 15 14 14 13 13 13 13 14 15 16 16 16 16 17 17 18 18 19 19 19 20 19 19 19 20 20 20 20 21 20 20 19 19 19 19 20 20
34 36 37 37 38 37 35 34 33 33 31 28 26 25 24 23 22 22 22 21 20 20 18 17 16 15 15 14 12 11 10 9 8 7 6 6 5 5 5 5 6 8 9 11 13 14 15 15 15 14 14 14 14 14 14 14 15 16 16 17 17 17 18 18 19 20 20 20 21 20 20 20 20 20 21 21 21 21 20 20 20 19 19 19 19
34 36 36 38 39 38 37 36 36 34 32 30 28 28 26 25 24 24 23 21 20 20 18 18 17 16 15 14 13 12 11 10 9 8 6 6 5 4 4 4 6 8 9 11 12 14 14 15 15 15 15 15 15 14 14 15 15 16 16 17 17 17 18 19 20 21 21 21 21 21 20 20 20 20 20 20 20 20 20 19 19 19 19 19 18
37 36 37 39 39 39 39 39 38 36 34 32 31 30 28 27 26 25 24 22 21 20 19 18 17 17 16 15 14 13 12 10 9 8 7 6 5 4 3 4 6 8 9 11 12 13 14 15 16 16 16 16 15 14 14 14 15 15 15 15 16 17 18 19 20 21 21 21 21 21 20 20 20 20 20 19 19 19 19 19 18 18 18 18 19
36 36 38 40 39 40 41 40 39 37 35 34 33 32 31 30 28 26 25 24 23 21 20 18 18 18 17 16 15 13 12 11 10 8 7 6 4 3 2 4 6 7 9 11 12 13 14 15 15 16 15 15 14 13 13 14 15 15 15 15 16 17 18 19 20 21 21 21 20 20 19 19 19 19 19 18 18 18 18 18 18 18 18 18 19
36 39 40 39 39 41 41 41 40 38 37 36 35 34 33 31 30 28 26 25 24 23 21 20 19 19 19 18 16 15 13 12 11 9 8 6 4 2 1 3 5 7 9 10 11 12 13 13 13 13 13 13 13 13 13 14 15 15 15 16 16 17 18 19 20 21 21 20 20 19 19 20 19 18 17 16 15 16 17 18 18 18 18 18 18
38 39 38 38 40 41 41 41 40 39 39 38 36 35 34 33 31 29 28 26 25 24 22 22 21 20 20 19 18 16 14 13 12 10 9 7 5 3 1 2 4 6 8 9 10 11 11 12 12 12 12 12 13 14 15 15 15 16 17 17 17 18 19 20 22 22 20 19 19 19 19 19 18 16 14 14 14 15 18 19 19 19 18 18 18
36 35 38 40 41 41 41 41 41 40 40 39 37 36 35 34 32 30 29 28 27 25 24 24 22 22 22 20 19 17 16 15 13 12 10 8 7 5 2 1 3 5 7 8 9 10 10 11 11 12 12 13 14 15 16 17 17 17 18 19 19 19 21 23 23 21 20 19 19 19 19 18 16 14 13 13 13 16 18 19 19 18 18 18 18
36 36 40 42 41 42 41 41 41 40 40 39 38 37 35 34 33 31 30 30 28 27 26 26 24 23 22 21 20 18 17 16 14 13 11 9 8 6 3 1 2 4 5 6 7 8 10 11 11 12 12 13 14 15 17 18 18 19 20 20 21 22 23 24 23 22 20 19 19 19 18 17 15 14 13 13 14 16 18 19 19 18 18 18 19
39 39 41 41 41 42 41 41 40 40 39 39 38 37 35 34 33 32 31 30 29 29 28 27 26 25 23 22 21 19 17 16 15 13 12 10 8 6 4 2 1 3 4 5 6 8 9 10 10 11 13 14 15 16 16 17 20 21 22 23 23 24 25 26 24 22 20 18 17 17 16 14 13 13 14 15 15 16 18 19 19 19 19 19 19
41 41 40 41 41 41 41 41 41 40 39 38 38 36 35 34 33 32 31 30 30 30 29 28 27 26 25 24 22 20 18 16 15 13 12 11 9 7 5 3 2 1 3 4 5 7 8 9 9 10 12 13 15 16 16 18 21 23 24 24 24 26 27 25 23 22 20 16 14 14 13 13 13 13 13 15 16 18 21 21 20 19 19 19 19
40 40 41 42 42 41 41 41 40 40 39 38 37 36 35 33 32 31 30 30 30 30 30 29 28 27 26 25 23 22 19 17 16 15 13 12 10 8 6 4 3 1 2 3 4 5 7 8 9 9 10 12 13 15 17 19 21 24 25 25 26 27 26 24 24 21 16 13 13 13 12 12 12 12 14 17 19 21 22 21 18 18 18 18 18
39 39 40 41 40 40 40 39 39 40 39 38 37 36 34 33 32 30 29 29 30 30 30 30 29 27 27 26 24 23 21 19 18 16 14 13 11 9 7 5 3 1 1 2 3 4 5 6 8 8 9 10 12 13 16 19 22 23 23 25 28 27 25 24 22 17 13 13 12 12 13 15 14 15 18 20 19 18 17 17 17 18 19 19 20
38 39 40 40 40 40 40 39 40 40 39 38 38 36 34 33 32 31 31 31 31 31 30 30 29 28 27 26 25 24 22 20 19 17 16 14 12 10 8 6 4 2 1 0 2 3 4 6 7 8 10 11 12 13 15 19 22 23 23 26 27 24 23 22 17 14 12 9 10 16 22 21 19 20 20 17 15 15 16 18 21 22 23 22 21
36 38 40 41 41 42 42 41 41 42 42 41 40 39 38 36 35 35 35 34 33 32 31 30 29 29 28 26 25 24 23 21 20 19 17 15 13 11 9 7 6 4 2 1 1 3 4 5 6 7 10 12 14 14 15 18 18 20 23 25 25 22 20 18 12 8 8 11 18 24 22 18 18 18 17 16 17 18 19 20 22 22 23 21 19
36 39 41 41 41 42 43 43 43 43 44 44 43 42 41 40 38 38 37 36 35 35 34 33 31 30 28 27 25 24 23 22 20 19 18 16 14 12 11 9 7 6 4 2 0 2 3 4 5 7 8 11 14 13 13 13 11 15 18 16 19 18 15 12 6 6 17 23 20 16 16 17 18 17 16 17 17 17 18 20 21 21 21 20 19
37 39 40 40 40 41 42 42 43 44 44 44 44 42 41 39 37 36 36 35 35 35 34 33 32 30 29 27 26 25 24 22 21 20 19 17 15 13 12 10 8 7 5 3 1 1 2 3 5 7 7 9 12 12 11 9 9 14 12 6 8 10 10 6 5 23 33 20 11 15 21 21 18 17 17 17 16 17 19 20 19 19 19 20 20
34 36 38 40 41 42 43 43 44 44 44 44 43 41 39 37 34 33 34 33 32 33 31 30 31 30 29 28 27 26 25 23 22 21 20 18 16 14 12 11 9 7 6 4 2 1 2 3 4 5 6 7 9 9 9 9 9 10 6 3 3 4 4 5 16 34 25 7 13 24 23 18 16 18 19 18 19 20 20 21 20 21 22 23 22
35 38 41 42 42 43 44 44 44 45 45 44 43 40 38 35 31 28 29 28 27 29 30 30 31 31 32 32 30 29 27 25 24 22 21 19 17 15 13 12 10 8 6 4 3 2 2 3 4 4 4 6 9 9 10 10 9 6 3 3 3 1 2 7 17 20 13 16 27 23 15 14 16 19 21 20 19 20 21 23 24 25 26 26 25
36 40 42 44 43 44 45 44 44 44 44 44 43 41 39 38 35 33 32 29 28 32 36 37 37 37 36 35 32 31 29 27 25 23 22 20 18 16 14 13 11 9 7 6 5 3 3 3 4 5 5 6 8 10 11 11 11 9 5 4 5 6 6 8 8 6 13 22 21 16 16 17 18 20 21 21 22 24 25 25 27 28 28 29 28
35 38 40 42 43 44 45 45 44 44 44 44 43 43 41 40 40 39 38 36 34 36 39 39 39 39 37 35 34 32 30 28 26 25 23 20 18 17 15 14 12 10 9 8 6 5 4 4 5 6 6 7 8 10 13 13 12 9 5 5 9 11 11 9 5 4 10 11 8 15 22 20 19 21 22 25 27 27 27 27 28 29 30 30 30
34 37 39 41 42 43 44 44 43 43 43 43 44 45 44 43 42 40 39 39 38 38 37 37 38 38 37 36 34 32 31 29 28 26 23 21 19 18 16 14 13 12 11 9 7 6 5 5 7 7 8 9 9 10 12 12 11 10 8 9 11 12 13 13 12 10 6 6 8 12 16 17 19 24 28 29 29 27 27 28 29 29 30 30 30
33 38 39 40 41 41 42 42 42 42 42 44 46 46 46 44 43 40 38 38 37 35 35 36 36 36 36 36 35 33 32 30 28 26 24 22 20 19 17 16 14 13 12 10 8 7 6 7 7 8 8 10 10 11 12 11 11 12 14 14 13 13 14 16 16 13 8 8 8 5 10 16 16 21 29 30 27 27 28 29 30 30 29 30 30
32 36 37 37 38 38 39 41 42 42 43 44 46 46 45 44 43 43 40 38 35 32 32 34 35 35 35 36 35 35 33 31 29 27 25 23 21 19 18 16 15 13 13 11 9 7 7 7 7 7 8 9 10 10 11 11 12 14 15 15 15 15 13 10 10 10 8 9 9 8 11 15 13 17 25 28 27 29 32 31 30 30 29 29 30
29 31 33 34 36 37 38 40 41 42 42 44 46 46 46 45 45 45 43 40 37 34 34 34 35 35 36 36 36 35 34 33 31 28 26 23 22 20 18 17 15 14 13 11 9 7 7 7 7 7 8 8 9 9 10 12 13 15 16 16 17 16 14 11 12 13 10 7 9 10 13 19 20 19 21 24 27 28 30 30 29 30 29 28 29
Wind_Direction
151 159 146 135 126 115 112 120 120 113 101 94 94 93 94 95 98 101 102 101 99 93 88 88 88 83 80 79 75 75 79 81 79 76 75 73 75 76 71 69 69 64 61 55 42 37 31 29 20 16 51 14 348 353 1 7 8 7 8 12 18 22 23 23 23 23 22 26 26 24 20 7 2 5 21 15 359 346 337 330 331 337 342 342 325
152 157 152 144 138 127 129 134 131 126 113 103 102 103 99 99 99 99 97 98 97 94 92 89 86 81 82 83 84 82 80 80 81 79 77 73 72 72 70 65 62 52 42 54 46 37 44 43 26 7 10 347 344 345 351 358 360 359 360 5 8 11 14 14 13 14 16 23 31 36 35 35 44 49 47 26 7 352 337 321 318 332 342 341 328
153 156 154 151 152 147 149 148 141 135 126 111 107 110 107 107 104 101 99 98 99 97 95 89 86 85 84 84 88 90 87 84 83 81 76 74 72 68 70 68 66 58 42 48 48 39 56 50 30 31 23 332 323 334 348 350 351 352 355 2 1 1 2 3 2 5 11 17 23 34 36 36 45 49 38 19 10 3 348 324 316 330 336 338 332
166 164 155 154 153 150 153 149 141 138 137 123 114 114 113 121 114 105 104 103 105 104 100 95 94 93 91 93 98 99 98 95 87 80 75 74 76 74 76 73 69 64 51 44 42 37 48 52 37 38 32 358 321 324 338 341 345 343 346 353 353 353 352 353 353 354 3 12 15 21 29 27 32 38 16 1 0 7 16 1 343 346 342 336 330
171 166 159 156 151 146 144 138 135 131 130 123 119 122 123 138 131 113 115 114 110 106 104 102 99 100 102 103 102 97 94 92 85 80 83 87 86 86 88 93 90 77 68 50 42 44 47 52 47 43 41 38 20 355 347 340 341 335 335 338 341 343 342 344 342 345 351 4 13 12 25 23 19 17 1 355 354 4 24 16 6 6 353 341 335
168 163 160 157 151 143 137 131 129 125 124 120 118 126 129 143 136 117 122 118 110 107 106 110 111 125 136 121 104 90 85 83 83 84 96 111 108 110 109 111 107 90 86 69 46 54 59 58 50 43 39 36 38 32 22 5 355 347 340 334 339 339 338 340 337 340 343 353 8 7 16 16 11 8 359 354 352 360 11 5 4 1 350 338 334
168 162 164 164 151 141 136 130 128 125 124 124 121 125 124 133 131 115 119 117 113 114 110 114 118 137 142 117 101 91 91 89 91 101 104 111 119 123 120 117 109 90 86 85 74 83 76 65 36 8 11 14 17 16 10 1 356 350 341 336 337 335 334 336 335 339 341 348 359 1 6 4 0 4 359 351 347 350 356 352 350 350 344 331 322
167 164 171 176 160 147 141 135 134 132 130 127 123 122 119 127 126 111 113 115 115 116 112 111 109 115 110 102 100 95 94 95 97 105 102 100 106 110 111 109 105 95 90 86 68 40 20 6 337 332 340 349 352 349 345 340 339 338 335 333 329 327 327 327 329 332 334 340 346 349 352 345 340 349 352 347 341 336 339 338 334 340 345 340 328
173 175 178 181 168 154 149 146 146 146 145 140 134 131 133 140 134 119 116 113 112 113 109 108 106 107 105 102 101 99 96 97 98 100 99 93 89 85 86 87 84 83 76 65 45 28 11 358 344 332 329 331 336 337 339 338 336 335 334 332 328 325 323 320 321 323 324 325 329 333 329 319 321 332 337 339 335 325 328 324 318 327 335 337 334
181 181 183 187 173 161 157 156 157 157 159 156 154 154 153 153 150 147 144 135 130 127 122 120 118 117 115 112 109 108 105 103 102 98 93 85 78 68 61 57 57 58 56 51 41 31 16 1 346 337 332 329 332 332 331 332 330 330 330 330 329 326 323 319 317 315 315 313 314 318 320 315 312 314 316 323 325 313 312 311 312 323 331 334 334
181 181 184 185 173 166 165 164 165 164 163 163 161 160 158 158 158 158 160 158 156 152 148 145 140 134 127 122 117 116 113 108 103 97 90 83 78 69 64 58 53 52 52 52 44 33 16 1 345 339 337 335 334 332 330 328 326 324 324 324 324 324 322 320 318 316 312 308 306 307 312 318 313 312 306 305 311 308 307 310 314 321 329 335 337
178 180 178 175 171 170 170 169 168 167 165 164 163 161 160 159 159 160 162 164 162 161 160 156 151 147 137 131 124 119 116 112 108 101 93 85 80 75 73 66 63 60 56 58 56 46 29 12 358 351 347 345 342 339 336 331 328 324 322 320 319 319 318 318 317 318 317 311 304 301 300 307 313 315 315 312 305 304 307 310 312 315 320 328 334
177 181 178 173 171 173 173 172 170 170 168 165 164 162 161 160 160 163 165 165 165 165 162 156 149 142 132 125 117 113 108 106 104 97 91 87 83 78 75 70 65 61 56 56 55 50 40 30 21 17 13 10 5 360 354 348 342 334 329 325 322 318 314 313 313 314 318 319 312 299 289 293 300 307 316 316 303 301 304 302 305 310 314 320 325
180 183 184 180 176 176 174 174 173 171 170 167 165 162 162 163 165 167 168 166 164 162 157 151 142 131 123 116 108 104 101 101 98 94 91 87 83 77 73 67 61 56 52 48 45 43 37 32 29 27 26 24 22 19 16 12 6 358 350 342 336 331 322 315 312 311 313 318 321 315 300 290 291 298 312 315 306 301 297 297 303 307 310 315 318
186 184 185 184 181 179 177 176 175 174 171 168 166 166 169 171 176 178 175 169 161 156 150 143 135 125 117 111 104 100 98 98 95 92 88 83 79 73 67 61 57 52 47 43 39 38 35 32 30 29 29 28 27 25 25 23 21 18 12 6 359 354 343 332 326 320 315 316 321 327 324 309 296 294 298 303 306 302 296 299 305 304 305 310 312
191 188 186 184 183 182 180 179 178 177 173 172 173 173 179 183 186 186 178 171 162 156 149 141 135 128 122 115 111 107 102 99 96 93 89 85 80 73 68 61 55 52 48 44 40 39 37 37 35 35 35 34 32 31 33 30 26 25 22 21 19 17 11 359 354 346 334 328 329 334 337 334 327 317 308 304 303 298 295 299 302 301 302 305 308
193 193 189 184 184 185 184 182 182 180 176 176 179 180 186 189 190 189 179 171 163 158 152 147 142 137 133 127 123 118 113 109 104 101 96 91 85 78 71 64 60 56 53 50 47 45 42 42 41 40 40 37 36 37 38 35 30 28 25 26 28 27 23 17 15 11 6 359 351 345 342 340 338 339 331 324 312 293 284 284 287 297 303 305 308
194 197 193 187 186 186 186 186 186 183 182 181 184 187 189 191 192 190 180 171 166 162 158 154 152 148 143 139 135 129 125 120 116 112 106 101 95 88 82 76 71 66 63 60 56 53 50 47 44 42 42 39 37 37 36 36 33 29 27 27 27 23 18 15 13 9 5 357 345 331 321 316 315 322 329 332 325 305 289 279 280 293 300 303 307
195 199 196 192 189 189 189 189 190 188 188 188 190 191 190 191 191 189 182 174 170 167 165 163 159 153 148 144 139 134 131 127 124 120 114 108 101 96 92 87 80 77 73 66 62 58 55 51 48 44 41 38 36 34 32 32 30 28 26 25 21 16 13 10 7 3 358 350 338 322 308 300 297 303 316 327 325 315 307 298 290 289 293 296 298
195 199 197 196 192 192 192 192 193 192 192 192 194 193 190 189 187 187 181 176 173 171 169 164 158 151 148 145 138 133 129 126 124 118 112 105 101 98 92 87 82 80 74 66 63 59 55 49 46 43 38 37 35 33 31 30 28 26 24 20 16 13 11 7 5 3 2 359 350 339 326 313 305 306 314 323 322 316 310 305 299 290 288 293 293
195 199 199 199 195 194 195 195 195 195 195 195 196 193 190 187 184 184 179 177 173 169 165 157 151 146 145 141 129 122 119 117 115 111 106 100 97 93 86 81 75 73 69 64 62 59 56 49 43 40 37 33 31 30 29 29 26 23 21 19 16 13 10 7 5 3 359 355 351 346 338 330 326 325 325 325 322 317 308 301 300 295 288 290 295
195 197 200 201 200 197 196 196 196 197 197 197 197 193 191 189 184 182 178 176 170 165 159 150 146 141 136 132 121 116 114 112 111 107 102 98 94 87 81 76 71 69 65 59 57 53 50 46 42 37 33 29 26 24 24 23 21 19 18 15 14 12 9 7 5 3 360 353 347 342 335 330 329 330 330 327 324 321 314 304 303 302 295 292 297
196 197 199 201 203 200 198 199 199 200 198 197 197 193 192 189 185 182 178 175 169 164 158 151 149 144 139 137 134 130 126 122 118 111 105 101 95 88 83 79 74 69 63 57 52 47 42 39 37 32 30 28 24 23 22 20 19 17 16 13 11 9 5 4 3 2 0 356 352 346 339 333 328 327 329 329 326 324 320 316 311 308 305 300 299
201 200 198 198 202 202 201 200 201 203 201 198 196 193 192 190 185 182 179 176 171 166 160 158 158 154 150 150 152 144 136 133 127 119 113 106 98 92 86 80 71 64 59 52 47 43 38 34 31 28 26 24 23 22 21 20 20 18 16 13 9 6 3 1 359 358 357 355 355 354 349 343 336 331 330 329 327 325 322 319 316 312 309 307 304
204 201 199 198 202 204 203 201 202 206 205 202 197 195 193 189 185 182 181 178 174 171 166 166 167 163 158 159 162 152 143 140 136 127 117 108 99 91 81 71 59 52 46 40 38 34 30 29 27 24 23 23 22 20 19 18 18 17 14 11 6 3 1 358 355 353 354 353 354 355 352 349 343 336 330 327 325 324 323 320 317 316 313 311 309
205 203 202 202 203 205 205 203 203 206 208 205 199 197 195 190 187 184 183 182 179 175 172 173 171 168 166 167 169 160 150 147 144 135 121 112 101 86 71 61 49 40 36 30 28 25 22 23 21 20 22 21 20 20 20 18 16 14 11 8 3 1 358 356 353 350 350 349 350 352 350 348 345 339 332 327 325 323 322 320 318 316 315 314 313
206 207 206 203 204 204 205 205 204 205 207 206 200 198 198 194 191 189 187 186 184 182 179 179 176 175 174 174 177 169 158 156 151 142 129 118 103 83 65 53 42 32 29 24 22 21 19 18 18 17 17 17 18 17 17 19 17 11 7 4 0 358 356 354 351 348 345 344 344 345 345 344 343 340 335 329 327 325 323 322 320 318 317 316 316
206 208 207 204 205 205 205 206 206 206 206 204 200 199 199 195 193 193 193 191 189 189 185 181 181 181 181 180 182 176 167 166 159 151 141 127 108 85 64 46 38 31 26 22 21 21 18 17 16 15 15 16 16 14 15 16 13 8 2 359 357 354 353 352 349 346 343 341 341 341 340 340 339 338 335 330 328 327 326 325 324 323 321 319 319
208 208 206 205 207 206 205 207 207 207 206 202 199 198 197 195 196 196 196 194 193 195 190 185 185 183 184 186 186 181 174 172 164 158 150 134 114 91 68 45 39 34 28 22 21 20 18 16 14 14 14 14 14 13 12 10 8 4 357 354 353 351 350 349 347 345 345 344 342 340 339 338 336 336 334 330 328 327 327 327 327 326 325 324 323
211 208 206 207 207 205 205 207 208 207 205 202 199 198 197 196 199 198 198 196 194 198 196 190 188 185 186 187 190 185 176 175 169 162 155 141 124 102 69 47 39 32 27 22 20 17 15 13 11 11 9 10 12 8 4 2 0 356 352 350 350 348 346 345 345 346 346 346 343 340 340 339 337 336 335 332 328 326 327 327 328 328 327 327 326
211 207 207 207 205 204 205 207 207 207 204 202 200 198 197 199 200 199 198 197 195 198 198 195 189 187 189 188 191 187 178 177 171 166 162 149 136 113 64 45 36 29 25 21 18 14 12 11 9 8 6 6 6 4 360 354 350 349 347 347 347 346 344 341 343 346 347 345 343 339 338 338 338 338 338 337 332 330 329 328 328 328 328 327 327
209 208 208 205 203 203 204 205 205 205 204 203 201 199 199 200 199 198 198 198 198 198 198 199 194 188 189 189 191 189 182 178 174 174 169 160 153 141 80 45 36 26 24 19 16 12 11 10 7 6 3 1 360 1 357 349 344 343 344 345 345 344 341 339 343 347 348 346 342 338 337 336 338 340 342 344 344 343 340 334 330 329 330 328 328
210 209 206 204 203 203 202 202 203 203 203 203 202 200 200 200 200 198 198 198 198 198 199 202 200 191 189 191 192 190 185 180 179 180 175 171 170 171 198 50 38 23 22 18 14 12 10 8 5 4 360 356 356 357 354 348 344 342 344 343 341 341 339 337 340 346 349 346 341 337 335 335 339 344 348 353 353 353 351 345 337 331 331 330 330
209 205 204 204 204 202 201 200 201 202 202 202 202 201 201 200 200 199 198 199 199 199 200 202 204 195 190 191 193 194 188 182 183 184 180 179 179 185 202 83 38 25 24 18 15 12 7 6 3 0 357 355 355 355 349 344 343 342 343 340 339 340 338 337 340 345 348 345 340 336 333 334 339 343 346 349 350 350 349 347 343 336 330 329 329
207 203 204 204 202 201 199 198 199 201 201 201 202 201 201 201 200 199 199 200 199 199 200 202 205 200 193 192 195 198 192 184 185 185 184 182 184 189 194 149 44 33 28 22 19 13 7 6 2 355 353 352 352 351 345 341 340 339 339 338 338 338 338 338 339 342 344 341 339 336 335 336 340 341 340 339 340 343 344 343 342 338 332 328 327
206 204 204 201 200 199 198 197 197 199 200 200 201 201 201 200 201 200 199 200 199 199 201 203 205 202 197 194 196 199 194 189 187 186 186 184 186 189 189 168 82 48 36 30 21 13 7 4 1 354 349 348 346 344 344 341 337 336 336 336 336 336 335 335 336 338 339 340 341 341 342 344 344 341 337 333 331 333 335 335 333 332 332 330 329
207 204 201 198 197 197 196 196 196 197 198 198 199 200 200 200 201 200 199 200 198 199 201 204 205 202 199 197 198 198 194 192 190 188 187 186 187 188 186 175 145 73 46 35 22 14 5 0 1 356 348 343 340 340 343 342 338 335 334 334 334 333 332 333 334 334 335 343 351 348 346 344 340 336 331 327 326 325 325 325 325 327 329 329 329
206 203 201 199 196 195 194 195 195 194 196 196 197 198 199 199 200 200 200 199 199 200 201 203 205 203 200 198 198 199 195 191 192 191 188 187 188 188 187 182 179 131 61 34 25 15 5 0 358 355 347 339 338 341 343 342 337 332 331 332 331 331 331 333 333 332 338 349 350 343 340 336 331 327 324 323 321 319 318 319 322 326 328 330 328
202 201 200 198 194 192 192 192 192 191 193 194 194 195 195 196 198 197 198 199 198 199 201 204 205 205 202 198 198 199 196 193 193 192 190 190 190 189 191 191 195 178 92 40 32 16 8 2 351 346 340 337 341 344 346 342 333 328 328 328 329 331 333 335 334 335 340 343 344 341 333 327 319 315 320 324 323 322 323 322 321 322 323 323 321
199 197 195 194 192 189 188 189 190 190 190 190 190 190 190 191 193 193 195 196 196 197 201 204 205 206 205 200 199 200 198 195 193 193 192 193 193 194 196 198 203 193 169 87 37 14 9 358 346 338 332 334 341 346 350 342 331 328 327 327 330 333 337 340 340 339 340 343 339 326 320 314 306 308 319 327 325 321 320 317 316 316 316 317 317
194 193 191 191 190 188 187 188 188 188 188 187 188 187 187 188 189 191 193 193 195 196 198 202 205 206 206 204 202 201 201 197 195 195 194 195 195 196 199 202 205 201 202 202 13 12 9 352 341 336 331 333 336 342 348 341 336 337 332 327 330 336 345 348 349 351 340 322 316 316 321 321 311 311 317 319 313 308 308 308 310 310 310 313 313
189 190 190 189 188 188 188 188 187 188 189 189 189 190 192 192 191 193 193 192 194 196 197 200 203 205 206 206 204 203 204 201 197 197 197 198 197 197 201 204 207 205 208 213 300 2 1 343 333 334 335 333 329 333 343 347 350 343 331 324 330 340 353 4 32 353 324 318 317 322 332 328 316 313 313 313 314 310 307 306 307 308 308 308 305
187 187 188 187 186 187 188 189 189 189 191 192 192 193 195 196 195 195 194 192 193 197 198 199 201 203 205 206 206 207 208 204 201 200 201 201 200 201 203 206 209 208 210 217 238 332 336 332 330 332 334 328 323 325 333 348 352 341 336 326 332 342 347 21 2 323 324 327 335 332 325 320 317 319 321 320 319 315 313 313 313 312 309 307 306
183 183 184 184 185 187 189 190 190 191 192 193 194 195 195 195 197 197 195 193 193 196 197 198 200 202 203 205 208 210 210 208 205 204 203 203 203 204 206 208 209 210 214 222 235 277 309 319 323 324 323 315 312 313 315 329 350 356 356 315 330 342 322 353 330 323 329 347 326 325 321 320 322 323 323 319 317 317 317 317 314 309 306 305 305
182 183 184 186 187 189 191 192 192 193 194 194 194 194 193 191 191 190 190 191 191 191 192 195 197 201 203 205 208 209 210 209 207 206 205 205 205 205 208 210 210 212 216 221 230 254 285 299 307 304 296 290 291 293 295 312 335 349 340 280 319 337 279 335 330 322 325 315 315 323 323 318 317 316 318 317 317 316 312 310 307 305 305 304 302
185 186 187 188 189 190 192 193 193 194 195 194 194 194 192 190 188 184 184 185 185 190 194 195 196 200 204 206 207 208 209 208 208 208 206 206 206 207 209 210 210 211 213 217 220 233 262 274 285 280 264 261 272 279 284 297 311 311 295 250 257 263 279 327 331 304 310 312 315 323 316 309 310 313 318 316 313 310 307 306 304 303 304 304 302
188 187 188 189 191 191 192 193 194 194 195 194 194 194 193 192 193 192 190 189 189 196 199 199 199 201 204 205 206 207 208 208 208 208 206 206 207 208 210 210 211 211 211 214 214 223 245 258 266 263 254 247 250 264 276 291 303 304 294 255 261 270 280 297 292 286 310 305 299 307 305 307 312 313 312 311 310 308 306 305 303 304 305 305 304
187 186 188 190 192 192 193 194 194 195 195 195 195 196 196 195 196 196 197 197 198 200 200 201 202 202 203 204 205 206 207 208 209 208 206 207 208 209 211 211 210 210 211 212 214 224 238 251 258 254 248 244 245 257 270 283 291 292 291 285 280 278 277 277 277 281 290 288 289 289 291 302 308 307 309 310 309 307 305 304 304 306 305 304 305
186 188 190 191 192 193 193 194 195 196 196 197 197 198 199 198 197 198 200 202 203 203 200 200 201 201 202 203 204 205 207 208 210 209 207 208 209 211 211 212 211 210 211 213 216 224 238 250 253 251 246 245 248 257 268 275 277 280 286 289 288 285 283 282 279 277 271 280 292 283 296 303 300 304 309 308 307 306 303 304 305 304 303 304 305
189 190 191 191 192 193 193 194 196 197 198 198 199 199 200 200 199 200 201 201 201 201 199 198 199 199 200 202 203 204 205 206 207 208 209 208 209 210 212 213 212 212 213 215 219 226 240 250 250 248 246 248 252 256 264 270 271 273 276 279 280 282 288 286 277 287 287 273 279 291 304 307 301 305 307 303 303 304 303 304 304 303 302 304 306
191 191 191 192 193 193 194 196 198 199 199 199 200 200 201 202 202 202 202 200 198 197 196 196 197 197 197 199 201 203 205 206 206 206 207 208 207 209 213 214 212 214 216 217 221 227 237 245 245 246 247 251 260 263 265 268 267 269 268 265 267 269 273 272 275 293 298 282 290 299 306 310 306 301 301 301 300 299 300 302 301 301 304 307 310